DW6233 Weather Reports


Display with metric or nautical units.
time (UTC)temp
F
wind
direction
speed
MPH
gust
MPH
rain 1hr
in
rain 24hr
in
rain mn
in
humidity
%
barometer
mb
20260905013018 56 332 20.0 31.0 0.00 0.00 0.00 80 1014.4
20260905011558 56 332 21.0 33.0 0.00 0.00 0.00 79 1014.7
20260905010106 56 303 15.0 28.0 0.00 0.00 0.00 80 1014.7
20260905004551 56 314 19.0 29.0 0.00 0.00 0.00 78 1014.6
20260905003052 56 337 15.0 24.0 0.00 0.00 0.00 77 1014.6
20260905001557 56 322 15.0 20.0 0.00 0.00 0.00 75 1014.8
20260905000100 56 351 12.0 21.0 0.00 0.00 0.00 75 1015.0
20260904234549 56 351 12.0 22.0 0.00 0.00 0.00 73 1015.2
20260904233024 56 338 5.0 12.0 0.00 0.00 0.00 69 1015.3
20260904231533 56 24 11.0 18.0 0.00 0.00 0.00 68 1015.2
20260904230123 56 339 13.0 23.0 0.00 0.00 0.00 65 1015.1
20260904223015 56 353 15.0 25.0 0.00 0.00 0.00 66 1015.4
20260904221515 56 14 12.0 23.0 0.00 0.00 0.00 67 1015.4
20260904220016 56 1 14.0 22.0 0.00 0.00 0.00 66 1015.1
20260904214513 57 354 17.0 34.0 0.00 0.00 0.00 62 1015.0
20260904213018 57 349 17.0 28.0 0.00 0.00 0.00 63 1015.0
20260904211513 57 21 15.0 30.0 0.00 0.00 0.00 65 1015.2
20260904210011 57 359 15.0 22.0 0.00 0.00 0.00 65 1015.3
20260904204521 56 347 15.0 23.0 0.00 0.00 0.00 65 1015.2
20260904203016 56 330 11.0 24.0 0.00 0.00 0.00 64 1015.1
20260904201508 56 333 13.0 19.0 0.00 0.00 0.00 66 1015.0
20260904200006 56 346 11.0 20.0 0.00 0.00 0.00 67 1014.8
20260904194507 56 6 12.0 18.0 0.00 0.00 0.00 65 1014.6
20260904193006 56 356 8.0 18.0 0.00 0.00 0.00 65 1014.5
20260904191504 55 34 12.0 19.0 0.00 0.00 0.00 67 1014.3
20260904190002 54 22 6.0 12.0 0.00 0.00 0.00 70 1014.3
20260904184501 54 30 7.0 16.0 0.00 0.00 0.00 69 1014.0
20260904183115 55 19 6.0 19.0 0.00 0.00 0.00 69 1013.8
20260904181558 55 25 9.0 20.0 0.00 0.00 0.00 70 1013.6
20260904180059 55 2 10.0 21.0 0.00 0.00 0.00 70 1013.6
20260904174556 55 353 13.0 21.0 0.00 0.00 0.00 68 1013.3
20260904173056 55 9 13.0 24.0 0.00 0.00 0.00 65 1013.2
20260904171610 55 353 13.0 22.0 0.00 0.00 0.00 67 1013.2
20260904170051 55 17 9.0 17.0 0.00 0.00 0.00 68 1013.1
20260904164600 55 339 14.0 29.0 0.00 0.00 0.00 68 1012.6
20260904163048 56 350 16.0 24.0 0.00 0.00 0.00 67 1012.5
20260904161550 56 334 15.0 27.0 0.00 0.00 0.00 67 1012.4
20260904160047 56 326 16.0 26.0 0.00 0.00 0.00 67 1012.1
20260904154546 56 331 19.0 26.0 0.00 0.00 0.00 66 1012.3
20260904153103 56 332 21.0 29.0 0.00 0.00 0.00 64 1012.2
20260904151547 56 305 20.0 28.0 0.00 0.00 0.00 65 1012.2
20260904150046 56 306 18.0 27.0 0.00 0.00 0.00 65 1012.2
20260904144536 56 318 16.0 25.0 0.00 0.00 0.00 67 1012.3
20260904143059 56 339 15.0 25.0 0.00 0.00 0.00 64 1012.2
20260904141559 56 343 16.0 29.0 0.00 0.00 0.00 63 1012.2
20260904140059 56 350 16.0 26.0 0.00 0.00 0.00 65 1012.1
20260904134559 56 5 17.0 29.0 0.00 0.00 0.00 63 1011.9
20260904133055 56 331 18.0 25.0 0.00 0.00 0.00 64 1011.7
20260904131601 56 323 16.0 27.0 0.00 0.00 0.00 65 1011.5
20260904130046 56 334 18.0 31.0 0.00 0.00 0.00 62 1011.2
20260904123027 55 360 16.0 24.0 0.00 0.00 0.00 67 1010.7
20260904121524 55 26 11.0 22.0 0.00 0.00 0.00 67 1010.7
20260904120023 55 357 14.0 21.0 0.00 0.00 0.00 68 1010.6
20260904113043 55 348 14.0 25.0 0.00 0.00 0.00 71 1010.1
20260904111524 55 360 16.0 21.0 0.00 0.00 0.00 66 1010.2
20260904110019 55 346 12.0 24.0 0.00 0.00 0.00 67 1010.3
20260904104530 56 15 14.0 24.0 0.00 0.00 0.00 66 1010.4
20260904100005 56 360 13.0 26.0 0.00 0.00 0.00 68 1009.8